Uosat F - Orbit

View from above orbital plane
View from above orbital plane
View from above satellite
View from above satellite

Ground track
Ground track

The orbit data is extracted from the following two-line orbital elements,

1 21575U 91050B   13142.83193301  .00000199  00000-0  77369-4 0  7267
2 21575 098.6460 108.9859 0008084 053.9893 002.4913 14.40130574147293
Epoch (UTC): 22 May 2013 19:57:59
Eccentricity: 0.0008084
inclination: 98.6460°
perigee height: 752 km
apogee height: 764 km
right ascension of ascending node: 108.9859°
argument of perigee: 53.9893°
revolutions per day: 14.40130574
mean anomaly at epoch: 2.4913°
orbit number at epoch: 14729

The dashed part of the orbit path shows where the satellite is in the earth's shadow,  

Developed and maintained by Chris Peat, Heavens-Above GmbH. Please read the updated FAQ before sending e-mail. Imprint. DLR